{"data":{"norad_id":62996,"epoch":"2026-05-25T03:21:39.411072Z","epoch_age_seconds":62906,"freshness":"FRESH","line1":"1 62996U 25031R   26145.14003948  .00015975  00000+0  58858-3 0  9993","line2":"2 62996  43.0009  71.9035 0001140 267.9102  92.1619 15.27591448 72786","mean_motion":15.27591448,"eccentricity":0.000114,"inclination_deg":43.0009,"raan_deg":71.9035,"arg_perigee_deg":267.9102,"mean_anomaly_deg":92.1619,"bstar":0.00058858,"rev_number":7278,"period_min":94.266042264463,"perigee_km":482.23264551622,"apogee_km":483.79698813045,"semimajor_km":6861.1518168233,"source":"CELESTRAK","updated_at":"2026-05-25T13:38:19.833277Z"}}